Flag for Cameroon Weather past 2 weeks in Douala, Cameroon

Now
77 °F

Fog.


Feels Like: 78 °F
Forecast: 75 / 93 °F
Wind: No wind

Location: Douala Obs.

Current Time: Jan 26, 2015 at 7:43:29 AM

Latest Report: Jan 26, 2015 at 7:00 AM


Visibility: 2 mi

Pressure: 29.86 "Hg

Humidity: 100%

Dew point: 77 °F

Location of DoualaLocation

Historic Weather in Douala — Graph

°F

Douala temperature yesterday

Maximum temperature yesterday: 91 °F (at 1:00 PM)
Minimum temperature yesterday: 77 °F (at 6:00 AM)
Average temperature yesterday: 83 °F

Past Weeks' High & Low Weather Summary

 TemperatureHumidityPressure
High93 °F (Jan 13, 3:00 PM)100% (Jan 13, 12:00 AM)29.98 "Hg (Jan 13, 12:00 AM)
Low68 °F (Jan 11, 6:00 AM)32% (Jan 13, 3:00 PM)29.74 "Hg (Jan 24, 4:00 PM)
Average82 °F81%29.86 "Hg
* Reported Jan 11 6:00 AM — Jan 26 6:00 AM, Douala, Weather by CustomWeather, © 2014

Note: Actual official high and low records may vary slightly from our data, if they occured in-between our weather recording intervals... More about our weather records

Advertising

Douala weather history for previous 24 hours

 ConditionsComfort  
Time TempWeatherWind HumidityBarometerVisibility
6:00 AM
Jan 26
77 °FPassing clouds.No wind94%29.86 "HgN/A
5:00 AM77 °FPassing clouds.No wind94%29.83 "HgN/A
4:00 AM77 °FPassing clouds.No wind94%29.83 "HgN/A
3:00 AM79 °FPassing clouds.No wind94%29.83 "HgN/A
2:00 AM79 °FPassing clouds.No wind94%29.83 "HgN/A
1:00 AM81 °FPassing clouds.No wind89%29.83 "HgN/A
12:00 AM79 °FPassing clouds.No wind94%29.86 "HgN/A
11:00 PM
Jan 25
81 °FPassing clouds.No wind94%29.86 "HgN/A
10:00 PM81 °FPassing clouds.No wind94%29.83 "HgN/A
9:00 PM82 °FPassing clouds.5 mph89%29.80 "HgN/A
8:00 PM82 °FPassing clouds.7 mph84%29.80 "HgN/A
7:00 PM84 °FPassing clouds.7 mph79%29.77 "HgN/A
6:00 PM84 °FPartly sunny.7 mph79%29.77 "HgN/A
5:00 PM86 °FPartly sunny.12 mph75%29.77 "HgN/A
4:00 PM88 °FPartly sunny.12 mph66%29.77 "HgN/A
3:00 PM88 °FPartly sunny.12 mph75%29.77 "HgN/A
2:00 PM90 °FPartly sunny.12 mph67%29.77 "HgN/A
1:00 PM91 °FPartly sunny.9 mph63%29.80 "HgN/A
12:00 PM90 °FPartly sunny.5 mph63%29.83 "HgN/A
11:00 AM86 °FThunderstorms. Partly sunny.7 mph79%29.86 "HgN/A
10:00 AM86 °FThunderstorms. Broken clouds.6 mph75%29.86 "Hg5 mi
9:00 AM82 °FThunderstorms. Fog.3 mph84%29.86 "Hg1 mi
8:00 AM79 °FThunderstorms. Fog.2 mph94%29.83 "Hg2 mi
7:00 AM77 °FThunderstorms. Fog.No wind94%29.83 "Hg2 mi
Weather by CustomWeather, © 2014

See weather overviewHow to use our weather pages